SCP
0 0 0 0 0 0 0 0 0 0 0 0 0 0 0 0 0 0 0 0 0 0 0 0 0 0 0 0 0 0 0 0 0 0 0 0 0 0
0 0 0 0 0 0 0 0 0 0 0 0 0 0 0 0 0 0 0 0 0 0 0 0 0 0 0 0 0 0 0 0 0 0 0 0 0 0
0 0 0 0 0 0 0 0 0 0 0 0 0 0 0 0 0 0 0 0 0 0 0 0 0 0 0 0 0 0 0 0 0 0 0 0 0 0
0 0 0 0 0 0 0 0 0 0 0 0 0 0 0 0 0 0 0 0 0 0 0 0 0 0 0 0 0 0 0 0 0 0 0 0 0 0
0 0 0 0 0 0 0 0 0 0 0 0 0 0 0 0 0 0 0 0 0 0 0 0 0 0 0 0 0 0 0 0 0 0 0 0 0 0
0 0 0 0 0 0 0 0 0 0 0 0 0 0 0 0 0 0 0 0 0 0 0 0 0 0 0 0 0 0 0 0 0 0 0 0 0 0
0 0 0 0 0 0 0 0 0 0 0 0 0 0 0 0 0 0 0 0 0 0 0 0 0 0 0 0 0 0 0 0 0 0 0 0 0 0
0 0 0 0 0 0 0 0 0 0 0 0 0 0 0 0 0 0 0 0 0 0 0 0 0 0 0 0 0 0 0 0 0 0 0 0 0 0
0 0 0 0 0 0 0 0 0 0 0 0 0 0 0 0 0 0 0 0 0 0 0 0 0 0 0 0 0 0 0 0 0 0 0 0 0 0
0 0 0 0 0 0 0 0 0 0 0 0 0 0 0 0 0 0 0 0 0 0 0 0 0 0 0 0 0 0 0 0 0 0 0 0 0 0
0 0 0 0 0 0 0 0 0 0 0 0 0 0 0 0 0 0 0 0 0 0 0 0 0 0 0 0 0 0 0 0 0 0 0 0 0 0
0 0 0 0 0 0 0 0 0 0 0 0 0 0 0 0 0 0 0 0 0 0 0 0 0 0 0 0 0 0 0 0 0 0 0 0 0 0
0 0 0 0 0 0 0 0 0 0 0 0 0 0 0 0 0 0 0 0 0 0 0 0 0 0 0 0 0 0 0 0 0 0 0 0 0 0
0 0 0 0 0 0 0 0 0 0 0 0 0 0 0 0 0 0 0 0 0 0 0 0 0 0 0 0 0 0 0 0 0 0 0 0 0 0
0 0 0 0 0 0 0 0 0 0 0 0 0 0 0 0 0 0 0 0 0 0 0 0 0 0 0 0 0 0 0 0 0 0 0 0 0 0
0 0 0 0 0 0 0 0 0 0 0 0 0 0 0 0 0 0 0 0 0 0 0 0 0 0 0 0 0 0 0 0 0 0 0 0 0 0
0 0 0 0 0 0 0 0 0 0 0 0 0 0 0 0 0 0 0 0 0 0 0 0 0 0 0 0 0 0 0 0 0 0 0 0 0 0
0 0 0 0 0 0 0 0 0 0 0 0 0 0 0 0 0 0 0 0 0 0 0 0 0 0 0 0 0 0 0 0 0 0 0 0 0 0
0 0 0 0 0 0 0 0 0 0 0 0 0 0 0 0 0 0 0 0 0 0 0 0 0 0 0 0 0 0 0 0 0 0 0 0 0 0
0 0 0 0 0 0 0 0 0 0 0 0 0 0 0 0 0 0 0 0 0 0 0 0 0 0 0 0 0 0 0 0 0 0 0 0 0 0
0 0 0 0 0 0 0 0 0 0 0 0 0 0 0 0 0 0 0 0 0 0 0 0 0 0 0 0 0 0 0 0 0 0 0 0 0 0
0 0 0 0 0 0 0 0 0 0 0 0 0 0 0 0 0 0 0 0 0 0 0 0 0 0 0 0 0 0 0 0 0 0 0 0 0 0
0 0 0 0 0 0 0 0 0 0 0 0 0 0 0 0 0 0 0 0 0 0 0 0 0 0 0 0 0 0 0 0 0 0 0 0 0 0
Wind_Speed
13 14 12 9 8 8 7 7 7 6 7 7 6 6 6 5 13 9 8 20 27 29 30 30 31 32 32 33 33 34 34 34 34 35 35 36 36 37
11 13 13 10 8 8 8 8 8 8 7 6 7 5 5 8 15 11 9 25 28 30 30 31 32 32 33 33 34 34 35 35 36 36 37 37 37 38
13 14 15 13 10 9 8 8 9 10 12 8 6 7 8 10 11 9 10 11 13 28 31 32 32 33 33 34 35 35 36 37 37 37 38 38 38 38
16 15 16 13 14 11 10 11 11 11 11 12 8 7 10 10 10 11 13 13 10 23 30 31 32 33 34 34 35 35 36 37 37 38 38 39 39 39
15 16 16 15 16 13 13 12 11 11 10 10 10 8 9 9 9 12 14 11 13 18 25 27 29 31 33 34 35 35 36 36 37 37 38 38 38 38
15 16 16 17 16 15 14 14 12 11 10 10 10 9 9 9 8 10 11 9 11 12 17 21 26 31 33 34 35 35 35 36 36 37 37 37 37 37
14 15 16 20 23 19 14 12 12 11 10 10 10 9 10 9 9 8 11 9 10 9 10 11 12 12 14 23 30 33 35 35 36 36 36 36 36 36
14 13 15 22 26 33 32 27 21 15 13 12 11 12 12 10 8 9 10 11 13 6 9 12 9 12 11 10 23 33 35 35 36 36 35 35 35 35
14 12 13 15 22 15 23 30 28 30 26 16 14 14 13 10 9 12 12 13 15 8 9 15 9 13 11 15 29 32 34 34 35 35 35 35 35 35
14 14 14 13 15 16 14 14 14 15 17 13 11 12 11 10 11 13 14 14 14 9 8 14 12 12 13 10 23 31 33 34 34 34 34 34 34 34
13 14 15 14 22 27 18 15 15 14 20 26 25 22 26 27 21 11 10 12 14 10 5 9 13 14 13 12 15 28 30 30 30 31 32 33 33 33
10 13 23 22 24 27 18 14 15 13 10 11 15 18 15 16 23 13 8 10 13 12 5 6 10 11 13 9 9 9 12 21 28 30 30 30 30 20
9 9 11 24 27 28 23 13 17 14 9 10 9 9 8 8 8 8 8 9 12 13 7 7 12 12 14 15 11 10 10 11 13 17 23 28 29 23
9 7 10 21 24 25 19 17 22 19 7 7 7 7 7 7 6 7 9 10 11 14 12 11 13 14 15 17 15 9 8 10 11 13 12 19 22 26
8 14 16 20 20 16 19 21 16 8 5 6 7 7 6 6 5 5 7 8 10 11 12 13 14 14 14 16 16 14 13 11 11 12 11 11 11 11
9 13 19 20 16 13 12 10 6 5 5 6 6 5 5 5 6 6 7 7 9 10 9 12 13 15 14 15 15 15 13 11 9 9 10 10 10 10
6 5 6 6 7 6 5 5 5 5 6 4 5 5 5 6 7 5 6 7 9 11 10 7 9 11 14 15 14 14 13 13 12 11 11 11 10 10
10 5 6 6 7 6 6 5 5 5 5 5 5 5 6 6 7 7 6 8 10 10 10 9 9 10 9 10 15 15 12 12 10 10 10 10 10 9
8 5 5 5 5 6 5 5 5 5 4 4 5 5 6 6 7 8 8 9 10 10 10 8 8 9 12 12 8 11 11 10 9 9 9 9 9 8
4 5 5 5 5 5 5 4 4 4 4 4 4 5 6 7 8 9 9 9 10 11 10 8 7 8 10 12 12 10 13 12 10 9 8 8 8 10
4 5 4 4 4 5 4 4 4 4 4 4 5 6 6 7 8 9 9 14 13 10 11 10 9 16 11 9 10 10 8 13 15 10 8 7 6 6
4 5 5 5 5 4 4 4 4 4 4 4 5 5 6 7 9 10 9 9 10 10 12 10 9 9 8 10 12 12 11 10 12 18 18 14 6 4
4 5 5 5 4 4 4 4 5 4 4 4 5 5 6 7 7 8 9 9 10 11 11 11 9 8 9 9 11 10 12 10 7 7 8 13 17 18
Wind_Direction
220 218 221 219 213 210 205 197 200 224 232 218 229 233 230 234 258 263 252 265 272 274 276 277 279 279 279 279 279 279 279 278 277 276 274 273 272 271
216 217 220 218 216 213 214 213 211 220 237 216 222 233 252 264 268 267 260 271 275 277 279 279 279 279 279 279 279 278 277 276 275 274 273 272 270 269
218 217 219 213 215 216 215 215 220 222 243 242 232 248 252 257 265 263 264 262 265 271 275 276 277 278 278 278 278 278 277 276 275 274 272 271 270 268
219 218 219 214 216 215 216 218 222 224 234 249 246 247 251 253 255 259 266 266 260 268 273 276 278 278 279 279 279 278 278 277 275 273 272 270 268 268
218 217 217 213 216 216 217 220 224 229 230 243 250 248 254 255 259 263 262 262 265 270 274 277 279 280 280 280 280 279 279 277 275 273 270 269 267 266
219 218 216 214 216 215 219 221 223 228 230 239 249 252 255 253 251 261 267 258 263 268 273 276 278 280 281 282 282 281 280 279 277 274 271 268 267 265
220 219 218 218 219 218 220 219 220 225 229 237 246 252 253 251 251 254 265 270 263 260 268 269 272 270 272 276 278 279 278 277 275 273 271 269 266 263
225 222 222 229 230 230 229 226 219 220 226 231 240 245 251 250 253 257 267 275 278 243 255 269 265 270 269 264 272 275 275 274 273 271 269 267 265 263
225 223 224 226 229 230 238 240 236 233 229 227 237 244 252 253 256 265 265 267 272 272 276 279 270 273 272 274 279 279 279 277 274 271 269 266 263 261
222 221 222 223 224 222 224 232 239 244 245 242 241 249 254 258 255 261 269 273 272 265 256 277 282 279 279 274 280 280 280 278 276 273 270 267 263 259
221 219 220 221 227 229 225 225 232 239 248 248 249 253 257 262 265 267 269 277 282 277 239 265 281 285 282 277 276 279 279 280 280 277 272 268 263 257
225 221 224 222 226 231 227 221 228 232 230 243 253 261 265 269 274 268 263 272 279 284 251 255 278 289 289 268 259 268 276 280 283 282 278 273 265 255
231 222 219 228 230 230 229 223 231 233 227 235 243 247 249 249 250 246 239 247 266 273 272 273 281 279 276 283 279 269 266 269 274 276 277 272 264 253
231 221 217 226 232 234 234 234 237 243 232 230 242 251 252 252 248 244 243 243 249 264 272 269 275 277 278 280 283 276 261 263 268 270 269 266 261 254
227 224 222 227 228 232 236 238 241 235 223 236 247 252 248 249 253 257 258 257 261 262 268 266 267 271 269 273 279 280 281 276 263 263 264 256 249 245
245 233 229 227 222 220 227 239 231 220 222 236 247 253 255 260 263 262 271 276 280 280 264 261 264 268 271 271 272 274 271 270 269 271 269 262 249 240
234 215 210 210 210 202 201 209 214 225 240 234 244 257 265 269 272 268 269 279 282 288 290 278 265 265 267 271 272 268 268 266 263 265 265 262 250 239
236 216 207 204 205 202 205 209 212 218 224 234 243 254 266 272 278 278 275 277 281 284 287 290 291 289 280 263 251 263 265 266 266 262 259 259 255 241
231 205 199 198 200 200 200 203 210 215 216 229 243 253 263 269 275 280 281 281 282 284 285 286 288 291 295 295 273 254 266 274 274 265 255 252 253 247
211 195 192 195 195 194 197 201 208 215 220 231 242 252 258 268 275 277 280 282 287 290 290 284 279 279 281 288 289 282 276 271 269 270 264 257 252 252
198 187 186 190 190 188 191 196 204 216 227 235 246 253 258 266 273 276 281 288 293 292 292 290 280 288 285 279 277 278 273 270 266 265 269 264 251 241
188 184 185 184 180 182 187 194 207 223 233 242 251 257 262 267 274 280 284 288 289 288 289 289 286 287 279 276 278 283 287 285 274 267 260 255 260 241
184 180 178 177 178 179 186 198 213 230 237 246 255 262 268 275 278 281 284 287 289 291 293 294 293 286 281 277 278 279 282 284 284 276 264 252 250 257